TOMSK-TPU 120 (42910 NORAD) Tracking and Keplerian Element Data

This shows tracking and keplerian element data for the satellite.

Feedback or suggestion? Click here.




ElementValue
Catalog42910
NameTOMSK-TPU 120
Epoch Orbit8987
Epoch Day73.80388329
Epoch Year2019
RAAN65.9437
Inclination51.6363
Eccentricity0.0005406
Argument of Perigee137.2747
Mean Anonmoly284.9758
Mean Motion15.75527337
Decay Rate0.0003148
L11 42910U 98067MZ 19073.80388329 .00031480 00000-0 20570-3 0 9990
L22 42910 51.6363 65.9437 0005406 137.2747 284.9758 15.75527337 89872

Live tracking and technical data element details for TOMSK-TPU 120 (NORAD 42910). TOMSK-TPU 120 can be tracked NOW for your location showing map with azimuth and elevation plus other details from your city location.

Track the satellite on the map from your city or location and see movement details for azimuth, elevation, latitude, longitude, range, height, and movement on the map or in text.







IsCatalogInMostPopularTable: catalog: 42910, numindb: 221
Update: records affected: 1



GetName: 42910 TOMSK-TPU 120

Hit Count: updated at: Wed, 20 Mar 2019 05:04:30 GMT